Location: Caltech
(34.1382°N, 118.1253°W)
Time: 20:37:28
(UTC-07:00)

Iridium 18 - Visible Passes

Search period start: 17 September 2014 00:00
Search period end: 27 September 2014 00:00
Orbit: 776 x 779 km, 86.4° (Epoch: 17 September)

Date Brightness Start Highest point End Pass type
(mag) Time Alt. Az. Time Alt. Az. Time Alt. Az.
17 Sep 9.2 05:13:13 10° E 05:14:01 10° ENE 05:14:48 10° ENE visible
19 Sep 7.7 05:42:38 10° SE 05:47:09 31° E 05:51:40 10° NNE visible
20 Sep 8.6 05:10:47 10° ESE 05:13:54 16° E 05:17:00 10° NE visible
22 Sep 6.7 05:42:12 10° SSE 05:47:09 46° E 05:52:06 10° NNE visible
23 Sep 8.0 05:09:44 10° SE 05:13:49 24° E 05:17:55 10° NNE visible
24 Sep 8.7 04:38:37 10° ESE 04:40:36 12° E 04:42:35 10° NE visible
24 Sep 5.6 06:15:34 10° SSW 06:20:41 60° W 06:25:50 10° N visible
25 Sep 5.9 05:42:01 10° S 05:47:11 70° E 05:52:21 10° N visible
26 Sep 7.2 05:09:06 10° SSE 05:13:47 35° E 05:18:29 10° NNE visible
